This is the latest recevied weather packets stored in our database for station/object KA6UPU-1. If no packets are shown the sender has not sent any weather packets the latest 10 day(s).
| Time | Temp. | Humidity | Pressure | Rain* | Wind** | Luminosity | Snow |
|---|---|---|---|---|---|---|---|
| 1777520597 | 17.22° C | 59% | 1015.2 hPa | 0 mm | - | - | - |
| 1777520297 | 17.22° C | 59% | 1015.2 hPa | 0 mm | - | - | - |
| 1777519997 | 17.22° C | 60% | 1015.2 hPa | 0 mm | - | - | - |
| 1777519697 | 17.78° C | 60% | 1015.3 hPa | 0 mm | - | - | - |
| 1777519396 | 17.78° C | 60% | 1015.2 hPa | 0 mm | - | - | - |
| 1777519097 | 18.33° C | 60% | 1015.2 hPa | 0 mm | - | - | - |
| 1777518798 | 18.33° C | 60% | 1015.1 hPa | 0 mm | - | - | - |
| 1777518497 | 18.33° C | 59% | 1015.1 hPa | 0 mm | - | - | - |
| 1777518197 | 18.89° C | 59% | 1015 hPa | 0 mm | - | - | - |
| 1777517897 | 18.89° C | 58% | 1015 hPa | 0 mm | - | - | - |
| 1777517597 | 19.44° C | 58% | 1014.9 hPa | 0 mm | - | - | - |
| 1777517297 | 19.44° C | 57% | 1014.7 hPa | 0 mm | - | - | - |
| 1777516997 | 19.44° C | 57% | 1014.8 hPa | 0 mm | - | - | - |
| 1777515797 | 20.56° C | 55% | 1014.6 hPa | 0 mm | - | - | - |
| 1777515197 | 20.56° C | 52% | 1014.7 hPa | 0 mm | - | - | - |
| 1777514897 | 20.56° C | 53% | 1014.6 hPa | 0 mm | - | - | - |
| 1777514597 | 20.56° C | 50% | 1014.6 hPa | 0 mm | - | - | - |
| 1777514297 | 20.56° C | 50% | 1014.7 hPa | 0 mm | - | - | - |
| 1777513697 | 21.11° C | 49% | 1014.6 hPa | 0 mm | - | - | - |
| 1777513397 | 21.11° C | 49% | 1014.6 hPa | 0 mm | - | - | - |
| 1777513097 | 21.11° C | 51% | 1014.6 hPa | 0 mm | - | - | - |
| 1777512496 | 21.11° C | 53% | 1014.6 hPa | 0 mm | - | - | - |
| 1777512197 | 21.67° C | 51% | 1014.5 hPa | 0 mm | - | - | - |
| 1777511597 | 22.22° C | 51% | 1014.5 hPa | 0 mm | - | - | - |
| 1777511296 | 22.22° C | 49% | 1014.5 hPa | 0 mm | - | - | - |
* Rain latest hour (hover to see other rain measurements)
** Current wind speed in m/s (hover to see current wind gust speed)